{"data":{"norad_id":59568,"epoch":"2026-05-25T02:55:53.818752Z","epoch_age_seconds":60396,"freshness":"FRESH","line1":"1 59568U 24076E   26145.12215068  .00000175  00000+0  15894-4 0  9998","line2":"2 59568  43.0015 297.2094 0000847 288.6526  71.4234 15.27579197118102","mean_motion":15.27579197,"eccentricity":8.47e-5,"inclination_deg":43.0015,"raan_deg":297.2094,"arg_perigee_deg":288.6526,"mean_anomaly_deg":71.4234,"bstar":1.5894e-5,"rev_number":11810,"period_min":94.266798266696,"perigee_km":482.47035784559,"apogee_km":483.63264317758,"semimajor_km":6861.1885005116,"source":"CELESTRAK","updated_at":"2026-05-25T13:38:18.985211Z"}}